Location: Haieshausen
(51.8387°N, 9.9720°E)
Time: 03:00:51
(UTC+00:00)

Cosmos 1242 Rocket - Pass Details

Date: 14 July 2020
Orbit: 448 x 487 km, 81.2° (Epoch: 10 August)

Event Time Altitude Azimuth Distance (km) Brightness Sun altitude
Rises 01:40:27 0° 353° (N) 2,468 7.0 -10.9°
Reaches altitude 10° 01:42:37 10° 1° (N) 1,591 6.2 -10.7°
Maximum altitude 01:45:53 38° 71° (ENE) 709 3.9 -10.4°
Drops below altitude 10° 01:49:08 10° 142° (SE) 1,587 5.0 -10.2°
Sets 01:51:18 0° 150° (SSE) 2,460 5.9 -10.0°
